DCM6021 KPIE-KJWN

Flight info

Callsign DCM6021
Flight time N/A
Altitude 47000
Route LLRGO1 LACEN DCT WESSN DCT LENSE DCT SWFFT DCT BNA DCT
Aircraft C750/M-SBDE3FGHRWXY/S

Departure

Time 2026-04-15 23:43
Airport St. Petersburg Clearwater International Airport (KPIE)

Arrival

Time N/A
Airport John C Tune Airport (KJWN)
Time Latitude Longitude Altitude Speed Heading
2026-04-15 23:36 27.90488 -82.69002 21 ft 0 kts 173°
2026-04-15 23:41 27.90467 -82.68983 22 ft 9 kts 114°
2026-04-15 23:41 27.90440 -82.68900 22 ft 15 kts 155°
2026-04-15 23:41 27.90307 -82.68874 23 ft 23 kts 171°
2026-04-15 23:41 27.90152 -82.68860 22 ft 23 kts 181°
2026-04-15 23:42 27.89993 -82.68865 17 ft 23 kts 181°
2026-04-15 23:42 27.89848 -82.68849 20 ft 20 kts 172°
2026-04-15 23:42 27.89715 -82.68822 20 ft 19 kts 155°
2026-04-15 23:42 27.89702 -82.68697 18 ft 18 kts 82°
2026-04-15 23:43 27.89760 -82.68621 16 ft 13 kts 352°
2026-04-15 23:43 27.89984 -82.68656 19 ft 57 kts 349°
2026-04-15 23:43 27.90488 -82.68748 23 ft 118 kts 351°
2026-04-15 23:43 27.91390 -82.68908 685 ft 125 kts 348°
2026-04-15 23:44 27.92285 -82.69080 1443 ft 139 kts 348°
2026-04-15 23:44 27.93330 -82.69249 1988 ft 166 kts 353°
2026-04-15 23:44 27.94579 -82.69346 2561 ft 194 kts 355°
2026-04-15 23:44 27.95999 -82.69471 3178 ft 220 kts 355°
2026-04-15 23:45 27.97618 -82.69628 3815 ft 245 kts 356°
2026-04-15 23:45 27.99399 -82.69797 4572 ft 262 kts 356°
2026-04-15 23:45 28.01231 -82.69972 5651 ft 267 kts 357°
2026-04-15 23:45 28.03111 -82.70151 6536 ft 276 kts 356°
2026-04-15 23:46 28.05055 -82.70337 7485 ft 283 kts 356°
2026-04-15 23:46 28.07016 -82.70521 8520 ft 288 kts 356°
2026-04-15 23:46 28.09029 -82.70715 9567 ft 293 kts 356°
2026-04-15 23:46 28.11086 -82.70858 10396 ft 302 kts
2026-04-15 23:47 28.13284 -82.70828 10674 ft 330 kts
2026-04-15 23:47 28.15673 -82.70820 10847 ft 357 kts
2026-04-15 23:47 28.18184 -82.70821 11608 ft 360 kts
2026-04-15 23:47 28.20704 -82.70807 12425 ft 364 kts
2026-04-15 23:48 28.23259 -82.70787 13150 ft 369 kts
2026-04-15 23:48 28.25839 -82.70777 13906 ft 372 kts 359°
2026-04-15 23:48 28.28401 -82.71265 14499 ft 378 kts 339°
2026-04-15 23:48 28.30770 -82.72556 15267 ft 378 kts 333°
2026-04-15 23:49 28.33085 -82.73915 15973 ft 381 kts 332°
2026-04-15 23:49 28.35459 -82.75290 16673 ft 385 kts 333°
2026-04-15 23:49 28.37866 -82.76658 17369 ft 389 kts 333°
2026-04-15 23:49 28.40308 -82.78017 18067 ft 392 kts 336°
2026-04-15 23:50 28.42964 -82.78777 18672 ft 397 kts 352°
2026-04-15 23:50 28.45707 -82.79208 19418 ft 400 kts 352°
2026-04-15 23:50 28.48477 -82.79659 20113 ft 404 kts 352°
2026-04-15 23:51 28.54110 -82.80592 21504 ft 413 kts 352°
2026-04-15 23:51 28.56966 -82.81058 22191 ft 417 kts 351°
2026-04-15 23:51 28.59800 -82.81841 22754 ft 422 kts 344°
2026-04-15 23:51 28.62633 -82.82761 23423 ft 425 kts 344°
2026-04-15 23:52 28.65500 -82.83663 24045 ft 430 kts 345°
2026-04-15 23:52 28.68403 -82.84550 24663 ft 433 kts 345°
2026-04-15 23:52 28.71319 -82.85454 25308 ft 437 kts 345°
2026-04-15 23:52 28.74265 -82.86387 25955 ft 439 kts 344°
2026-04-15 23:53 28.77221 -82.87320 26561 ft 443 kts 344°
2026-04-15 23:53 28.80202 -82.88248 27176 ft 445 kts 344°
2026-04-15 23:53 28.83198 -82.89181 27749 ft 448 kts 344°
2026-04-15 23:53 28.86175 -82.90118 28335 ft 450 kts 344°
2026-04-15 23:54 28.89215 -82.91076 28873 ft 454 kts 344°
2026-04-15 23:54 28.92267 -82.92033 29414 ft 456 kts 344°
2026-04-15 23:54 28.95336 -82.92996 29925 ft 459 kts 344°
2026-04-15 23:54 28.98426 -82.93967 30401 ft 461 kts 344°
2026-04-15 23:55 29.01532 -82.94946 30866 ft 464 kts 344°
2026-04-15 23:55 29.04655 -82.95929 31353 ft 465 kts 343°
2026-04-15 23:55 29.07713 -82.96891 32025 ft 462 kts 343°
2026-04-15 23:55 29.10851 -82.97879 32678 ft 459 kts 343°
2026-04-15 23:56 29.13926 -82.98849 33306 ft 457 kts 343°
2026-04-15 23:56 29.16952 -82.99804 33897 ft 456 kts 343°
2026-04-15 23:56 29.20006 -83.00769 34525 ft 453 kts 343°
2026-04-15 23:56 29.23037 -83.01728 35217 ft 449 kts 342°
2026-04-15 23:57 29.26031 -83.02674 35995 ft 443 kts 342°
2026-04-15 23:57 29.28989 -83.03609 36719 ft 438 kts 342°
2026-04-15 23:57 29.31912 -83.04535 37425 ft 433 kts 342°
2026-04-15 23:57 29.34792 -83.05447 38193 ft 426 kts 342°
2026-04-15 23:58 29.37628 -83.06345 38953 ft 419 kts 342°
2026-04-15 23:58 29.40412 -83.07227 39623 ft 412 kts 342°
2026-04-15 23:58 29.43167 -83.08103 40136 ft 410 kts 341°
2026-04-15 23:58 29.45922 -83.08979 40578 ft 410 kts 341°
2026-04-15 23:59 29.48672 -83.09852 41014 ft 410 kts 341°
2026-04-15 23:59 29.51391 -83.10715 41439 ft 410 kts 341°
2026-04-15 23:59 29.54137 -83.11589 41854 ft 410 kts 341°
2026-04-15 23:59 29.56894 -83.12467 42255 ft 410 kts 341°
2026-04-16 00:00 29.59657 -83.13346 42643 ft 410 kts 341°
2026-04-16 00:00 29.62409 -83.14223 43002 ft 411 kts 341°
2026-04-16 00:00 29.65168 -83.15102 43349 ft 411 kts 341°
2026-04-16 00:00 29.67929 -83.15983 43680 ft 412 kts 341°
2026-04-16 00:01 29.70659 -83.16854 44020 ft 412 kts 341°
2026-04-16 00:01 29.73423 -83.17736 44354 ft 412 kts 341°
2026-04-16 00:01 29.76190 -83.18620 44657 ft 413 kts 341°
2026-04-16 00:01 29.78967 -83.19508 44923 ft 414 kts 341°
2026-04-16 00:02 29.81752 -83.20399 45203 ft 415 kts 341°
2026-04-16 00:02 29.84541 -83.21291 45505 ft 416 kts 341°
2026-04-16 00:02 29.87333 -83.22185 45762 ft 417 kts 341°
2026-04-16 00:02 29.90134 -83.23083 46017 ft 418 kts 341°
2026-04-16 00:03 29.92938 -83.23982 46260 ft 418 kts 341°
2026-04-16 00:03 29.95749 -83.24883 46499 ft 419 kts 341°
2026-04-16 00:03 29.98563 -83.25787 46717 ft 420 kts 341°
2026-04-16 00:03 30.01355 -83.26683 46936 ft 421 kts 341°
2026-04-16 00:04 30.04169 -83.27587 47149 ft 420 kts 341°
2026-04-16 00:04 30.07008 -83.28501 47148 ft 426 kts 341°
2026-04-16 00:04 30.12787 -83.30361 47159 ft 434 kts 341°
2026-04-16 00:05 30.18616 -83.32237 47167 ft 435 kts 341°
2026-04-16 00:05 30.24499 -83.34137 47163 ft 442 kts 341°
2026-04-16 00:06 30.30415 -83.36045 47166 ft 441 kts 341°
2026-04-16 00:06 30.36327 -83.37959 47171 ft 441 kts 341°
2026-04-16 00:07 30.42233 -83.39870 47147 ft 441 kts 341°
2026-04-16 00:07 30.48108 -83.41776 47148 ft 441 kts 341°
2026-04-16 00:08 30.54026 -83.43696 47148 ft 441 kts 341°
2026-04-16 00:08 30.59948 -83.45622 47148 ft 441 kts 341°
2026-04-16 00:09 30.65865 -83.47547 47149 ft 441 kts 341°
2026-04-16 00:09 30.71755 -83.49468 47152 ft 445 kts 341°
2026-04-16 00:10 30.77792 -83.51439 47152 ft 456 kts 341°
2026-04-16 00:10 30.83976 -83.53458 47151 ft 467 kts 341°
2026-04-16 00:11 30.90295 -83.55526 47150 ft 476 kts 341°
2026-04-16 00:11 30.96748 -83.57639 47158 ft 485 kts 341°
2026-04-16 00:12 31.03311 -83.59793 47151 ft 494 kts 341°
2026-04-16 00:12 31.09965 -83.61978 47155 ft 498 kts 341°
2026-04-16 00:13 31.16629 -83.64170 47155 ft 498 kts 341°
2026-04-16 00:13 31.23303 -83.66370 47151 ft 499 kts 341°
2026-04-16 00:14 31.29983 -83.68573 47151 ft 499 kts 341°
2026-04-16 00:14 31.36629 -83.70770 47152 ft 499 kts 341°
2026-04-16 00:15 31.43326 -83.72986 47153 ft 499 kts 341°
2026-04-16 00:15 31.50021 -83.75206 47153 ft 500 kts 341°
2026-04-16 00:16 31.55577 -83.77050 47153 ft 499 kts 341°
2026-04-16 00:16 31.62272 -83.79276 47154 ft 501 kts 341°
2026-04-16 00:17 31.68989 -83.81511 47154 ft 500 kts 341°
2026-04-16 00:17 31.75656 -83.83734 47155 ft 501 kts 341°
2026-04-16 00:18 31.82366 -83.85974 47154 ft 501 kts 341°
2026-04-16 00:18 31.89093 -83.88223 47170 ft 501 kts 341°
2026-04-16 00:19 31.95770 -83.90459 47151 ft 501 kts 341°
2026-04-16 00:19 32.02473 -83.92707 47148 ft 501 kts 340°
2026-04-16 00:20 32.09177 -83.94959 47149 ft 501 kts 340°
2026-04-16 00:20 32.15887 -83.97217 47149 ft 501 kts 340°
2026-04-16 00:21 32.22598 -83.99477 47149 ft 501 kts 340°
2026-04-16 00:21 32.29306 -84.01741 47151 ft 502 kts 340°
2026-04-16 00:22 32.36007 -84.04006 47152 ft 501 kts 340°
2026-04-16 00:22 32.42725 -84.06280 47151 ft 501 kts 340°
2026-04-16 00:23 32.49399 -84.08542 47149 ft 501 kts 340°
2026-04-16 00:23 32.56109 -84.10821 47148 ft 501 kts 340°
2026-04-16 00:24 32.62827 -84.13105 47145 ft 502 kts 340°
2026-04-16 00:24 32.69539 -84.15391 47153 ft 502 kts 340°
2026-04-16 00:25 32.76266 -84.17686 47165 ft 502 kts 340°
2026-04-16 00:25 32.82943 -84.19967 47166 ft 502 kts 340°
2026-04-16 00:26 32.89672 -84.22270 47165 ft 503 kts 340°
2026-04-16 00:26 32.96402 -84.24577 47170 ft 503 kts 340°
2026-04-16 00:27 33.03138 -84.26890 47169 ft 504 kts 340°
2026-04-16 00:27 33.09876 -84.29205 47169 ft 504 kts 340°
2026-04-16 00:28 33.16576 -84.31514 47165 ft 504 kts 339°
2026-04-16 00:28 33.23316 -84.33838 47171 ft 504 kts 339°
2026-04-16 00:29 33.30045 -84.36163 47168 ft 503 kts 339°
2026-04-16 00:29 33.36783 -84.38495 47170 ft 504 kts 339°
2026-04-16 00:30 33.43526 -84.40832 47170 ft 504 kts 339°
2026-04-16 00:30 33.50261 -84.43170 47171 ft 504 kts 339°
2026-04-16 00:31 33.56972 -84.45504 47160 ft 504 kts 339°
2026-04-16 00:31 33.63715 -84.47852 47149 ft 504 kts 339°
2026-04-16 00:32 33.70457 -84.50204 47148 ft 504 kts 339°
2026-04-16 00:32 33.77198 -84.52560 47146 ft 504 kts 339°
2026-04-16 00:33 33.83946 -84.54922 47141 ft 504 kts 339°
2026-04-16 00:33 33.90655 -84.57274 47132 ft 504 kts 339°
2026-04-16 00:34 33.97333 -84.59818 47122 ft 500 kts 333°
2026-04-16 00:34 34.03430 -84.63724 47163 ft 497 kts 326°
2026-04-16 00:35 34.09471 -84.67779 47162 ft 497 kts 326°
2026-04-16 00:35 34.15496 -84.71856 47152 ft 496 kts 326°
2026-04-16 00:36 34.21531 -84.75936 47141 ft 496 kts 326°
2026-04-16 00:36 34.27521 -84.79993 47141 ft 497 kts 326°
2026-04-16 00:37 34.33556 -84.84091 47131 ft 497 kts 326°
2026-04-16 00:37 34.39597 -84.88196 47116 ft 498 kts 326°
2026-04-16 00:38 34.45644 -84.92315 47116 ft 498 kts 326°
2026-04-16 00:38 34.51713 -84.96455 46443 ft 503 kts 326°
2026-04-16 00:39 34.54688 -84.98482 45797 ft 490 kts 326°
2026-04-16 00:39 34.57629 -85.00487 45150 ft 478 kts 326°
2026-04-16 00:39 34.60494 -85.02448 44528 ft 466 kts 325°
2026-04-16 00:39 34.63289 -85.04365 43920 ft 455 kts 325°
2026-04-16 00:40 34.66016 -85.06233 43319 ft 444 kts 325°
2026-04-16 00:40 34.68677 -85.08054 42733 ft 433 kts 324°
2026-04-16 00:40 34.71268 -85.09832 42169 ft 422 kts 324°
2026-04-16 00:40 34.73802 -85.11575 41612 ft 414 kts 324°
2026-04-16 00:41 34.76297 -85.13293 41068 ft 410 kts 324°
2026-04-16 00:41 34.78782 -85.15002 40521 ft 410 kts 323°
2026-04-16 00:41 34.81268 -85.16713 39974 ft 411 kts 323°
2026-04-16 00:41 34.83724 -85.18403 39430 ft 410 kts 323°
2026-04-16 00:42 34.86207 -85.20117 38885 ft 409 kts 323°
2026-04-16 00:42 34.88685 -85.21824 38332 ft 409 kts 323°
2026-04-16 00:42 34.91181 -85.23548 37785 ft 416 kts 323°
2026-04-16 00:42 34.93711 -85.25296 37229 ft 419 kts 323°
2026-04-16 00:43 34.96263 -85.27057 36671 ft 424 kts 323°
2026-04-16 00:43 34.98843 -85.28842 36102 ft 428 kts 323°
2026-04-16 00:43 35.01452 -85.30651 35529 ft 435 kts 323°
2026-04-16 00:43 35.04111 -85.32493 34951 ft 443 kts 324°
2026-04-16 00:44 35.06819 -85.34368 34350 ft 452 kts 324°
2026-04-16 00:44 35.09572 -85.36277 33764 ft 457 kts 324°
2026-04-16 00:44 35.12348 -85.38207 33145 ft 460 kts 324°
2026-04-16 00:44 35.15108 -85.40172 32508 ft 457 kts 321°
2026-04-16 00:45 35.17489 -85.42652 31917 ft 452 kts 309°
2026-04-16 00:45 35.19678 -85.45439 31326 ft 456 kts 308°
2026-04-16 00:45 35.21869 -85.48257 30710 ft 460 kts 308°
2026-04-16 00:45 35.24082 -85.51075 30095 ft 457 kts 309°
2026-04-16 00:46 35.26287 -85.53866 29492 ft 455 kts 309°
2026-04-16 00:46 35.28472 -85.56653 28884 ft 451 kts 309°
2026-04-16 00:46 35.30623 -85.59412 28293 ft 446 kts 308°
2026-04-16 00:46 35.32765 -85.62156 27695 ft 443 kts 309°
2026-04-16 00:47 35.34884 -85.64860 27109 ft 439 kts 309°
2026-04-16 00:47 35.36988 -85.67551 26529 ft 435 kts 309°
2026-04-16 00:47 35.39071 -85.70224 25951 ft 431 kts 308°
2026-04-16 00:47 35.41137 -85.72878 25376 ft 428 kts 308°
2026-04-16 00:48 35.43184 -85.75504 24813 ft 425 kts 309°
2026-04-16 00:48 35.45218 -85.78114 24249 ft 421 kts 308°
2026-04-16 00:48 35.47235 -85.80708 23694 ft 418 kts 308°
2026-04-16 00:48 35.49231 -85.83279 23136 ft 414 kts 309°
2026-04-16 00:49 35.51185 -85.85797 22597 ft 411 kts 308°
2026-04-16 00:50 35.64567 -86.03254 18857 ft 391 kts 308°
2026-04-16 00:51 35.66421 -86.05695 18335 ft 388 kts 308°
2026-04-16 00:51 35.68237 -86.08090 17829 ft 385 kts 308°
2026-04-16 00:51 35.70058 -86.10487 17318 ft 382 kts 308°
2026-04-16 00:51 35.71868 -86.12868 16811 ft 380 kts 308°
2026-04-16 00:52 35.73656 -86.15227 16304 ft 374 kts 308°